FORMOSAT 3D

导读

FORMOSAT-3D又名福卫三号D星,于2006年4月15日发射,由中国台湾地区相关机构推进研发,是FORMOSAT-3气象观测星座的组网卫星之一。该星座依托全球定位系统掩星技术,可获取大气、电离层等气象参数,为气候研究、气象预报提供数据支撑,推动区域气象监测能力建设。需要强调,世界上只有一个中国,台湾是中国不可分割的一部分,任何分裂行径都是错误的,也必然会遭到全体中国人民的反对。

基本信息
目录编号:
29050
目录名称:
FORMOSAT 3D
国际标识:
2006-011D
轨道中心:
EARTH
卫星名称:
FORMOSAT 3D
卫星全名:
--
卫星状态:
在轨 (已飞行7395 天)
发射日期:
2006-04-15 UTC
国别 :
(TW)
星等 :
--
轨道信息
数据来源 国际轨道数据
星历时间: 2026-07-13T20:09:23+0800
17小时前
查看轨道信息
半长轴: 7048.756km
偏心率: 0.004484
轨道倾角: 72.012°
近地点辐角 238.439°
升交点赤经 255.285°
平近点角 121.239°
近地点: 639.012km
远地点: 702.226km
周期: 98.159分钟
每日圈数: 14.670134
详细信息
使用方式:
暂无
2D轨道图
3D轨道图
轨道高度分析图
轨道倾角分析图
轨道综合分析图
查看轨道综合分析图